Retour au catalogue

LEMUR 2 HUBBLE-5

ActifScienceSSO
NORAD 64840·PAYLOAD·🇺🇸 United States

Lancé Jun 23, 2025 depuis Vandenberg Space Force Base

Loading…

Prochains Passages (prochaines 24 heures)

TLE

FraisSource: Space-Track

Époque: Sep 14, 2026, 13:19 UTC

1 64840U 25135BT  26257.55503607  .00000978  00000-0  96272-4 0  9995
2 64840  97.7789  11.2049 0006556  51.6196 308.5612 14.94362227 67253

Suivez LEMUR 2 HUBBLE-5 en temps réel avec AllMySat

Download on the App Store